Location: Splawn
(30.9202°N, 96.9858°W)
Time: 15:28:02
(UTC+00:00)

Vanguard 2 Rocket - Visible Passes

Search period start: 26 February 2020 00:00
Search period end: 07 March 2020 00:00
Orbit: 553 x 3327 km, 32.9° (Epoch: 26 February)

Date Brightness Start Highest point End Pass type
(mag) Time Alt. Az. Time Alt. Az. Time Alt. Az.
26 Feb 9.2 01:46:48 10° WSW 02:07:10 89° SSE 02:15:37 33° ENE visible
26 Feb 9.0 04:07:25 10° W 04:21:26 61° WNW 04:21:26 61° WNW visible
27 Feb 9.5 00:44:23 10° WSW 01:05:04 82° SSE 01:19:27 14° ENE visible
27 Feb 8.6 03:04:11 10° W 03:23:21 82° N 03:25:15 72° ENE visible
27 Feb 10.0 05:24:49 10° WNW 05:31:03 27° WNW 05:31:03 27° WNW visible
28 Feb 9.1 02:01:07 10° W 02:21:32 85° N 02:29:04 39° E visible
28 Feb 9.2 04:21:48 10° W 04:34:52 55° WNW 04:34:52 55° WNW visible
29 Feb 9.5 00:58:30 10° WSW 01:19:18 90° NNW 01:32:51 17° ENE visible
29 Feb 8.7 03:18:39 10° W 03:37:48 85° N 03:38:39 81° ENE visible
29 Feb 10.2 05:39:07 10° WNW 05:44:27 24° W 05:44:27 24° W visible
01 Mar 9.0 02:15:34 10° W 02:35:58 83° N 02:42:26 45° E visible
01 Mar 9.4 04:36:07 10° WNW 04:48:14 49° W 04:48:14 49° W visible
02 Mar 9.5 01:12:50 10° W 01:33:41 85° N 01:46:12 21° E visible
02 Mar 8.7 03:33:03 10° WNW 03:52:00 88° SW 03:52:00 88° SW visible
02 Mar 10.3 05:53:33 10° WNW 05:57:48 20° W 05:57:48 20° W visible
03 Mar 8.9 02:30:01 10° W 02:50:26 86° N 02:55:46 52° E visible
03 Mar 9.6 04:50:25 10° WNW 05:01:34 42° W 05:01:34 42° W visible
04 Mar 9.5 01:27:18 10° W 01:48:08 84° N 01:59:33 26° E visible
04 Mar 8.9 03:47:22 10° WNW 04:05:21 75° SW 04:05:21 75° SW visible
04 Mar 10.5 06:08:19 10° W 06:11:09 16° W 06:11:09 16° W visible
05 Mar 9.7 00:25:01 10° W 00:45:28 85° N 01:02:58 10° E visible
05 Mar 8.9 02:44:25 10° WNW 03:04:46 88° SSW 03:09:08 59° ESE visible
05 Mar 9.8 05:04:50 10° WNW 05:14:56 35° W 05:14:56 35° W visible
06 Mar 9.4 01:41:44 10° W 02:02:36 86° N 02:12:56 31° E visible
06 Mar 9.1 04:01:39 10° WNW 04:18:44 62° SW 04:18:44 62° SW visible
06 Mar 10.7 06:23:52 10° W 06:24:33 11° W 06:24:33 11° W visible
